Total_Precipitation_Accumulation
0.89 0.86 0.78 0.78 0.71 0.78 0.89 0.96 0.92 0.84 0.80 0.72 0.69 0.75 0.79 0.82 0.85 0.96 1.03 1.01 1.15 1.43 1.64 1.65 1.45 1.26 1.20 1.23 1.27 1.27 1.27 1.33 1.35 1.41 1.48 1.49 1.45 1.31 1.17 1.11 1.00 0.98 1.09
0.94 0.90 0.85 0.87 0.83 0.84 0.96 0.96 0.88 0.93 0.92 0.85 0.72 0.72 0.79 0.85 0.90 0.91 0.93 1.04 1.09 1.16 1.51 1.74 1.75 1.53 1.45 1.34 1.39 1.46 1.42 1.35 1.31 1.36 1.43 1.48 1.51 1.35 1.17 1.05 0.99 0.93 0.95
0.84 0.87 0.87 0.87 0.91 1.00 1.05 1.07 0.92 0.95 0.91 0.83 0.78 0.72 0.71 0.73 0.78 0.84 0.81 0.82 0.89 0.99 1.24 1.60 1.83 1.74 1.62 1.53 1.47 1.53 1.50 1.36 1.30 1.32 1.37 1.36 1.41 1.35 1.23 1.20 1.07 1.05 1.04
0.77 0.90 0.91 0.88 0.91 1.04 1.13 1.16 1.07 1.04 0.98 0.94 0.91 0.84 0.75 0.76 0.74 0.81 0.82 0.75 0.88 0.83 0.98 1.15 1.38 1.57 1.64 1.63 1.56 1.59 1.52 1.26 1.16 1.27 1.33 1.26 1.28 1.29 1.15 1.22 1.14 1.10 1.08
0.84 1.01 1.11 1.12 1.12 1.13 1.13 1.08 1.13 1.13 1.11 1.10 1.02 0.97 0.86 0.79 0.84 0.79 0.81 0.83 0.79 0.83 0.92 0.79 0.86 1.00 1.30 1.51 1.60 1.77 1.72 1.34 1.17 1.24 1.36 1.20 1.17 1.26 1.11 1.12 1.13 1.05 1.00
1.19 1.32 1.33 1.40 1.47 1.36 1.32 1.25 1.26 1.22 1.16 1.19 1.08 0.97 0.89 0.80 0.89 0.93 0.91 0.91 0.87 0.81 0.90 0.84 0.78 0.71 0.86 1.14 1.44 1.78 1.99 1.63 1.34 1.26 1.37 1.26 1.15 1.23 1.09 1.10 1.17 1.01 0.95
1.52 1.73 1.69 1.74 1.78 1.66 1.63 1.66 1.86 1.81 1.54 1.30 1.33 1.16 0.98 0.83 0.94 0.99 0.96 0.98 0.99 1.05 1.10 0.99 0.86 0.82 0.70 0.73 0.93 1.39 1.99 1.85 1.60 1.42 1.41 1.36 1.17 1.13 1.03 1.06 1.18 1.09 0.93
1.44 1.58 1.83 1.93 1.86 1.88 2.01 2.02 2.35 2.50 2.06 1.63 1.62 1.74 1.47 1.26 1.00 0.86 0.92 0.94 1.03 1.22 1.23 1.03 0.93 0.85 0.78 0.80 0.60 0.84 1.45 1.66 1.65 1.62 1.54 1.43 1.29 1.13 1.08 1.15 1.13 1.18 1.08
1.41 1.51 1.67 1.82 1.84 1.91 2.01 2.12 2.45 2.91 2.67 2.13 1.89 2.08 1.78 1.58 1.39 1.05 0.90 0.92 1.02 1.23 1.33 1.25 1.16 1.08 0.93 0.95 0.82 0.71 0.90 1.07 1.42 1.74 1.75 1.58 1.46 1.23 1.17 1.31 1.13 1.19 1.22
1.31 1.37 1.51 1.65 1.78 1.80 1.94 2.04 2.15 2.62 2.94 2.62 2.32 1.98 1.65 1.57 1.67 1.49 1.13 1.04 1.08 1.16 1.24 1.19 1.18 1.26 1.17 1.08 0.95 0.76 0.77 0.78 1.05 1.54 1.85 1.84 1.68 1.51 1.42 1.50 1.32 1.25 1.28
1.40 1.39 1.54 1.61 1.63 1.68 1.79 2.12 2.37 2.62 2.81 2.75 2.64 2.46 2.20 1.91 1.57 1.68 1.62 1.35 1.22 1.14 1.17 1.22 1.23 1.26 1.27 1.23 1.28 0.98 0.78 0.75 0.78 1.18 1.73 2.07 2.01 1.85 1.70 1.68 1.60 1.49 1.44
1.49 1.54 1.60 1.60 1.58 1.61 1.72 1.94 2.22 2.43 2.74 2.90 2.79 2.57 2.42 2.29 2.07 1.91 1.69 1.58 1.52 1.30 1.24 1.25 1.20 1.24 1.33 1.41 1.36 1.33 0.95 0.71 0.64 0.79 1.19 1.68 2.00 2.05 1.96 1.91 1.87 1.88 1.77
1.38 1.42 1.53 1.65 1.73 1.76 1.87 2.04 2.19 2.10 2.31 2.69 2.67 2.52 2.42 2.21 2.17 2.21 2.02 1.73 1.60 1.31 1.23 1.20 1.15 1.26 1.27 1.28 1.47 1.65 1.16 0.83 0.65 0.71 0.80 1.03 1.37 1.72 1.99 2.11 2.13 2.13 2.13
1.34 1.29 1.33 1.44 1.58 1.75 1.79 1.84 1.86 1.83 1.96 2.20 2.29 2.46 2.56 2.31 2.15 2.01 1.92 1.96 1.74 1.47 1.31 1.19 1.10 1.12 1.17 1.21 1.41 1.59 1.20 1.00 0.74 0.64 0.65 0.76 0.89 1.06 1.37 1.68 2.00 2.14 2.26
1.11 1.03 1.04 1.08 1.16 1.25 1.33 1.48 1.57 1.68 1.73 1.85 2.01 2.13 2.27 2.36 2.26 2.02 1.93 1.92 1.89 1.70 1.48 1.38 1.22 1.04 1.16 1.26 1.45 1.29 1.17 1.16 0.98 0.78 0.67 0.68 0.73 0.79 0.91 1.00 1.19 1.45 1.76
1.03 0.96 0.92 0.88 0.84 0.83 0.88 1.06 1.25 1.37 1.48 1.64 1.83 1.95 1.96 2.01 2.19 2.15 1.97 1.95 1.87 1.73 1.59 1.41 1.31 1.18 1.35 1.26 1.39 1.25 1.26 1.32 1.04 0.91 0.82 0.75 0.72 0.65 0.64 0.66 0.65 0.71 0.87
1.01 1.00 0.91 0.85 0.91 0.91 0.89 0.95 1.01 1.06 1.14 1.28 1.43 1.56 1.71 1.95 2.23 2.25 2.19 2.08 1.95 1.80 1.57 1.41 1.20 1.13 1.44 1.53 1.44 1.31 1.27 1.26 1.04 0.95 0.88 0.81 0.76 0.70 0.64 0.57 0.55 0.54 0.60
0.69 0.78 0.87 0.82 0.80 0.83 0.86 0.92 0.95 0.98 1.00 1.08 1.18 1.31 1.49 1.77 2.10 2.31 2.39 2.28 2.13 1.97 1.83 1.67 1.33 1.09 1.21 1.55 1.69 1.61 1.38 1.22 1.11 1.03 0.92 0.83 0.78 0.71 0.65 0.62 0.59 0.57 0.55
0.52 0.57 0.66 0.67 0.76 0.83 0.86 0.88 0.90 0.94 0.96 1.04 1.18 1.24 1.29 1.48 1.67 1.88 2.06 2.19 2.18 2.15 2.11 1.88 1.57 1.30 1.24 1.37 1.63 1.64 1.56 1.51 1.29 1.22 1.22 1.10 0.97 0.87 0.76 0.67 0.65 0.61 0.56
0.54 0.61 0.73 0.78 0.73 0.71 0.76 0.86 0.90 0.86 0.85 0.88 0.97 1.06 1.16 1.20 1.36 1.50 1.61 1.80 2.01 2.24 2.31 2.17 1.90 1.58 1.45 1.35 1.45 1.61 1.68 1.62 1.53 1.34 1.30 1.20 1.19 1.12 1.00 0.85 0.71 0.64 0.65
0.61 0.63 0.73 0.83 0.90 0.85 0.82 0.91 0.88 0.86 0.85 0.84 0.89 0.89 0.95 0.98 1.04 1.22 1.26 1.48 1.81 2.06 2.17 2.24 2.13 1.82 1.56 1.38 1.18 1.28 1.54 1.76 1.75 1.65 1.65 1.42 1.29 1.16 1.07 1.03 0.96 0.83 0.74
0.51 0.50 0.54 0.61 0.70 0.74 0.94 0.90 0.74 0.71 0.77 0.83 0.88 0.87 0.89 0.83 0.82 0.88 1.01 1.14 1.44 1.65 1.78 1.85 1.88 1.73 1.52 1.38 1.33 1.30 1.37 1.51 1.56 1.44 1.47 1.56 1.50 1.36 1.26 1.14 1.16 1.19 1.11
0.42 0.39 0.39 0.39 0.45 0.60 0.69 0.54 0.52 0.58 0.72 0.84 0.91 0.93 0.89 0.84 0.88 0.89 0.91 0.93 1.00 1.17 1.38 1.58 1.60 1.51 1.56 1.47 1.39 1.29 1.31 1.33 1.31 1.41 1.47 1.52 1.52 1.42 1.35 1.34 1.37 1.28 1.22
0.31 0.31 0.38 0.45 0.47 0.49 0.55 0.46 0.45 0.55 0.75 0.88 0.88 0.84 0.90 0.91 0.94 1.00 0.93 1.00 0.96 0.94 1.03 1.07 1.21 1.41 1.55 1.72 1.69 1.58 1.59 1.53 1.44 1.53 1.55 1.49 1.39 1.32 1.23 1.21 1.28 1.16 1.08
0.35 0.38 0.49 0.56 0.50 0.44 0.49 0.49 0.55 0.69 0.81 0.90 0.86 0.86 0.93 0.98 1.10 1.15 1.06 1.11 1.07 1.04 1.00 1.11 1.20 1.30 1.39 1.50 1.65 1.69 1.65 1.61 1.48 1.41 1.42 1.36 1.26 1.28 1.27 1.15 1.08 1.08 0.99
0.32 0.39 0.41 0.39 0.39 0.46 0.52 0.51 0.64 0.82 0.94 1.04 1.00 0.99 1.18 1.13 1.10 1.05 1.03 1.18 1.15 1.00 0.92 0.97 1.02 1.10 1.13 1.23 1.35 1.39 1.52 1.59 1.50 1.36 1.19 1.17 1.18 1.22 1.26 1.16 1.04 0.97 0.93